DW9845 Weather Reports


Display with metric or nautical units.
time (UTC)temp
F
wind
direction
speed
MPH
gust
MPH
rain 1hr
in
rain 24hr
in
rain mn
in
humidity
%
barometer
mb
20190323141704 61 144 0.0 4.0 0.00 0.00 0.00 100 1020.0
20190323141204 61 169 1.0 4.0 0.00 0.00 0.00 100 1019.9
20190323140705 61 142 1.0 4.0 0.00 0.00 0.00 100 1019.8
20190323140205 61 187 1.0 4.0 0.00 0.00 0.00 100 1019.7
20190323135705 60 187 1.0 4.0 0.00 0.00 0.00 100 1019.6
20190323135204 60 111 0.0 4.0 0.00 0.00 0.00 100 1019.6
20190323134704 60 111 0.0 5.0 0.00 0.00 0.00 100 1019.5
20190323134205 60 111 0.0 5.0 0.00 0.00 0.00 100 1019.4
20190323133705 60 174 0.0 2.0 0.00 0.00 0.00 100 1019.3
20190323133204 60 117 0.0 1.0 0.00 0.00 0.00 100 1019.4
20190323132705 59 163 0.0 2.0 0.00 0.00 0.00 100 1019.3
20190323132205 59 163 0.0 2.0 0.00 0.00 0.00 100 1019.3
20190323131704 59 163 0.0 2.0 0.00 0.00 0.00 100 1019.2
20190323131204 59 163 0.0 2.0 0.00 0.00 0.00 100 1019.1
20190323130705 59 162 0.0 2.0 0.00 0.00 0.00 100 1019.1
20190323130205 58 177 0.0 2.0 0.00 0.00 0.00 100 1019.0
20190323125705 58 177 0.0 1.0 0.00 0.00 0.00 100 1018.9
20190323125205 58 177 0.0 2.0 0.00 0.00 0.00 100 1019.0
20190323124704 58 176 0.0 2.0 0.00 0.00 0.00 100 1018.9
20190323124205 58 176 0.0 2.0 0.00 0.00 0.00 100 1018.8
20190323123704 58 176 0.0 2.0 0.00 0.00 0.00 100 1018.7
20190323123205 58 180 0.0 2.0 0.00 0.00 0.00 100 1018.6
20190323122705 58 180 0.0 0.0 0.00 0.00 0.00 100 1018.5
20190323122204 58 180 0.0 0.0 0.00 0.00 0.00 100 1018.6
20190323121704 58 180 0.0 3.0 0.00 0.00 0.00 100 1018.6
20190323121204 58 180 0.0 3.0 0.00 0.00 0.00 100 1018.5
20190323120704 58 180 0.0 3.0 0.00 0.00 0.00 100 1018.5
20190323120204 58 180 0.0 1.0 0.00 0.00 0.00 100 1018.4
20190323115704 58 180 0.0 1.0 0.00 0.00 0.00 100 1018.2
20190323115204 58 180 0.0 0.0 0.00 0.00 0.00 100 1018.1
20190323114705 58 180 0.0 0.0 0.00 0.00 0.00 100 1018.0
20190323114204 58 180 0.0 0.0 0.00 0.00 0.00 100 1018.0
20190323113704 58 180 0.0 0.0 0.00 0.00 0.00 100 1017.9
20190323113204 58 180 0.0 0.0 0.00 0.00 0.00 100 1017.8
20190323112704 58 180 0.0 0.0 0.00 0.00 0.00 100 1017.7
20190323112205 58 180 0.0 0.0 0.00 0.00 0.00 100 1017.6
20190323111704 58 180 0.0 0.0 0.00 0.00 0.00 100 1017.6
20190323111205 59 180 0.0 0.0 0.00 0.00 0.00 100 1017.5
20190323110704 59 180 0.0 0.0 0.00 0.00 0.00 100 1017.4
20190323110205 59 180 0.0 0.0 0.00 0.00 0.00 100 1017.4
20190323105703 59 180 0.0 0.0 0.00 0.00 0.00 100 1017.5
20190323105204 59 180 0.0 0.0 0.00 0.00 0.00 100 1017.5
20190323104704 59 180 0.0 1.0 0.00 0.00 0.00 100 1017.4
20190323104205 59 180 0.0 1.0 0.00 0.00 0.00 100 1017.4
20190323103704 59 180 0.0 2.0 0.00 0.00 0.00 100 1017.4
20190323103204 59 180 0.0 2.0 0.00 0.00 0.00 100 1017.4
20190323102705 59 180 0.0 2.0 0.00 0.00 0.00 100 1017.5
20190323102205 59 181 0.0 0.0 0.00 0.00 0.00 100 1017.4
20190323101704 59 181 0.0 1.0 0.00 0.00 0.00 100 1017.4
20190323101204 59 181 0.0 2.0 0.00 0.00 0.00 100 1017.4
20190323100704 59 181 0.0 2.0 0.00 0.00 0.00 100 1017.5
20190323100205 58 181 0.0 2.0 0.00 0.00 0.00 100 1017.4
20190323095704 58 181 0.0 2.0 0.00 0.00 0.00 100 1017.4
20190323095204 58 181 0.0 2.0 0.00 0.00 0.00 100 1017.5
20190323094704 58 181 0.0 0.0 0.00 0.00 0.00 100 1017.5
20190323094204 58 181 0.0 0.0 0.00 0.00 0.00 100 1017.4
20190323093704 58 181 0.0 0.0 0.00 0.00 0.00 100 1017.4
20190323093205 57 181 0.0 0.0 0.00 0.00 0.00 100 1017.4
20190323092704 57 181 0.0 0.0 0.00 0.00 0.00 100 1017.5
20190323092205 56 181 0.0 0.0 0.00 0.00 0.00 100 1017.5
20190323091704 56 181 0.0 0.0 0.00 0.00 0.00 100 1017.5
20190323091204 56 181 0.0 0.0 0.00 0.00 0.00 100 1017.6
20190323090704 56 181 0.0 0.0 0.00 0.00 0.00 100 1017.6
20190323090204 56 181 0.0 0.0 0.00 0.00 0.00 100 1017.6
20190323085704 56 181 0.0 0.0 0.00 0.00 0.00 100 1017.6
20190323085204 56 181 0.0 0.0 0.00 0.00 0.00 100 1017.5
20190323084704 56 181 0.0 0.0 0.00 0.00 0.00 100 1017.6
20190323084205 56 181 0.0 0.0 0.00 0.00 0.00 100 1017.6
20190323083705 56 181 0.0 0.0 0.00 0.00 0.00 100 1017.7
20190323083205 56 181 0.0 0.0 0.00 0.00 0.00 100 1017.8
20190323082705 56 181 0.0 0.0 0.00 0.00 0.00 100 1017.9
20190323082205 57 181 0.0 0.0 0.00 0.00 0.00 100 1017.9
20190323081705 57 181 0.0 0.0 0.00 0.00 0.00 100 1017.9
20190323081204 57 181 0.0 0.0 0.00 0.00 0.00 100 1017.8
20190323080704 57 181 0.0 0.0 0.00 0.00 0.00 100 1017.9
20190323080205 57 181 0.0 0.0 0.00 0.00 0.00 100 1017.8
20190323075704 57 181 0.0 0.0 0.00 0.00 0.00 100 1017.9
20190323075204 57 181 0.0 0.0 0.00 0.00 0.00 100 1017.9
20190323074704 57 181 0.0 0.0 0.00 0.00 0.00 100 1017.9
20190323074203 57 181 0.0 0.0 0.00 0.00 0.00 100 1018.0
20190323073704 57 181 0.0 0.0 0.00 0.00 0.00 100 1018.0
20190323073204 57 181 0.0 0.0 0.00 0.00 0.00 100 1018.1
20190323072705 57 181 0.0 0.0 0.00 0.00 0.00 100 1018.1
20190323072204 57 181 0.0 1.0 0.00 0.00 0.00 100 1018.1
20190323071704 57 181 0.0 1.0 0.00 0.00 0.00 100 1018.1
20190323071204 57 181 0.0 1.0 0.00 0.00 0.00 100 1018.1
20190323070704 57 181 0.0 0.0 0.00 0.00 0.00 100 1018.1
20190323070205 57 181 0.0 0.0 0.00 0.00 0.00 100 1018.2
20190323065704 57 181 0.0 1.0 0.00 0.00 0.00 100 1018.1
20190323065204 57 181 0.0 1.0 0.00 0.00 0.00 100 1018.1
20190323064704 57 181 0.0 0.0 0.00 0.00 0.00 100 1018.2
20190323064205 57 181 0.0 1.0 0.00 0.00 0.00 100 1018.3
20190323063704 57 181 0.0 3.0 0.00 0.00 0.00 100 1018.4
20190323063204 57 181 0.0 3.0 0.00 0.00 0.00 100 1018.3
20190323062704 57 181 0.0 2.0 0.00 0.00 0.00 100 1018.2
20190323062204 57 181 0.0 1.0 0.00 0.00 0.00 100 1018.3
20190323061705 57 181 0.0 2.0 0.00 0.00 0.00 100 1018.4
20190323061204 57 181 0.0 2.0 0.00 0.00 0.00 100 1018.4
20190323060704 57 181 0.0 2.0 0.00 0.00 0.00 100 1018.4
20190323060205 57 181 0.0 2.0 0.00 0.00 0.00 100 1018.4
20190323055705 57 181 0.0 0.0 0.00 0.00 0.00 100 1018.4
20190323055204 57 181 0.0 0.0 0.00 0.00 0.00 100 1018.5
20190323054704 57 181 0.0 0.0 0.00 0.00 0.00 100 1018.6
20190323054204 57 181 0.0 0.0 0.00 0.00 0.00 100 1018.6
20190323053705 58 181 0.0 0.0 0.00 0.00 0.00 100 1018.8
20190323053205 58 181 0.0 0.0 0.00 0.00 0.00 100 1018.9
20190323052704 58 181 0.0 0.0 0.00 0.00 0.00 100 1018.8
20190323052204 58 181 0.0 1.0 0.00 0.00 0.00 100 1018.8
20190323051705 58 181 0.0 1.0 0.00 0.00 0.00 100 1018.9
20190323051205 58 181 0.0 2.0 0.00 0.00 0.00 100 1019.0
20190323050704 58 181 0.0 2.0 0.00 0.00 0.00 100 1018.9
20190323050204 59 181 0.0 1.0 0.00 0.00 0.00 100 1018.9
20190323045704 59 181 0.0 2.0 0.00 0.00 0.00 100 1019.0
20190323045204 59 181 0.0 3.0 0.00 0.00 0.00 100 1018.9
20190323044704 59 181 0.0 3.0 0.00 0.00 0.00 100 1019.0
20190323044204 59 181 0.0 3.0 0.00 0.00 0.00 100 1018.9
20190323043704 59 180 0.0 2.0 0.00 0.00 0.00 100 1019.0
20190323043204 59 180 0.0 4.0 0.00 0.00 0.00 100 1019.0
20190323042704 59 180 0.0 4.0 0.00 0.00 0.00 100 1019.0
20190323042205 59 180 0.0 4.0 0.00 0.00 0.00 100 1018.9
20190323041704 59 180 1.0 4.0 0.00 0.00 0.00 100 1019.0
20190323041204 59 175 1.0 5.0 0.00 0.00 0.00 100 1019.1
20190323040704 60 168 0.0 5.0 0.00 0.00 0.00 100 1019.1
20190323040205 60 167 0.0 5.0 0.00 0.00 0.00 100 1019.2
20190323035705 60 167 0.0 1.0 0.00 0.00 0.00 100 1019.3
20190323035204 60 175 0.0 1.0 0.00 0.00 0.00 100 1019.3
20190323034703 60 175 0.0 1.0 0.00 0.00 0.00 2 1019.4
20190323034205 60 175 0.0 1.0 0.00 0.00 0.00 7 1019.4
20190323033705 61 175 0.0 1.0 0.00 0.00 0.00 11 1019.5
20190323033204 61 175 0.0 1.0 0.00 0.00 0.00 15 1019.5
20190323032704 61 175 0.0 2.0 0.00 0.00 0.00 17 1019.5
20190323032205 61 175 0.0 2.0 0.00 0.00 0.00 20 1019.4
20190323031704 62 175 0.0 2.0 0.00 0.00 0.00 25 1019.4
20190323031204 62 175 0.0 1.0 0.00 0.00 0.00 30 1019.4
20190323030704 62 175 0.0 1.0 0.00 0.00 0.00 34 1019.4
20190323030205 62 175 0.0 1.0 0.00 0.00 0.00 38 1019.3
20190323025705 62 175 0.0 1.0 0.00 0.00 0.00 41 1019.3
20190323025204 63 175 0.0 2.0 0.00 0.00 0.00 45 1019.3
20190323024704 63 175 0.0 4.0 0.00 0.00 0.00 48 1019.3
20190323024204 63 175 0.0 4.0 0.00 0.00 0.00 51 1019.2
20190323023705 63 175 0.0 2.0 0.00 0.00 0.00 56 1019.1
20190323023204 63 175 0.0 2.0 0.00 0.00 0.00 59 1019.0
20190323022704 64 175 0.0 2.0 0.00 0.00 0.00 61 1019.0
20190323022205 64 175 0.0 4.0 0.00 0.00 0.00 63 1018.9
20190323021705 64 175 0.0 4.0 0.00 0.00 0.00 65 1018.9
20190323021205 64 175 0.0 4.0 0.00 0.00 0.00 66 1018.8
20190323020705 64 175 1.0 4.0 0.00 0.00 0.00 66 1018.8
20190323020204 65 175 1.0 4.0 0.00 0.00 0.00 67 1018.8
20190323015704 65 174 1.0 4.0 0.00 0.00 0.00 67 1018.6
20190323015204 65 176 1.0 6.0 0.00 0.00 0.00 66 1018.5
20190323014703 65 174 1.0 6.0 0.00 0.00 0.00 64 1018.4
20190323014205 65 178 1.0 4.0 0.00 0.00 0.00 62 1018.3
20190323013704 66 167 1.0 5.0 0.00 0.00 0.00 60 1018.2
20190323013204 66 167 1.0 5.0 0.00 0.00 0.00 59 1018.2
20190323012704 67 140 2.0 5.0 0.00 0.00 0.00 57 1018.3
20190323012204 67 173 2.0 5.0 0.00 0.00 0.00 54 1018.1
20190323011704 67 167 1.0 5.0 0.00 0.00 0.00 52 1018.1
20190323011204 67 167 1.0 4.0 0.00 0.00 0.00 51 1018.0
20190323010704 68 171 1.0 4.0 0.00 0.00 0.00 49 1018.1
20190323010204 68 171 1.0 6.0 0.00 0.00 0.00 48 1018.0
20190323005704 68 176 1.0 6.0 0.00 0.00 0.00 48 1018.0
20190323005205 69 181 1.0 6.0 0.00 0.00 0.00 47 1018.0
20190323004704 69 175 1.0 5.0 0.00 0.00 0.00 46 1018.0
20190323004204 69 174 1.0 5.0 0.00 0.00 0.00 45 1018.0
20190323003704 70 175 1.0 7.0 0.00 0.00 0.00 45 1017.9
20190323003204 70 171 1.0 7.0 0.00 0.00 0.00 44 1017.8
20190323002704 70 171 1.0 7.0 0.00 0.00 0.00 43 1017.7
20190323002203 71 149 2.0 7.0 0.00 0.00 0.00 42 1017.7
20190323001704 71 165 2.0 7.0 0.00 0.00 0.00 41 1017.7
20190323001204 71 184 2.0 12.0 0.00 0.00 0.00 40 1017.6
20190323000704 72 169 3.0 12.0 0.00 0.00 0.00 40 1017.6
20190323000204 72 163 3.0 12.0 0.00 0.00 0.00 39 1017.6
20190322235704 73 194 3.0 11.0 0.00 0.00 0.00 38 1017.5
20190322235204 73 165 3.0 11.0 0.00 0.00 0.00 38 1017.5
20190322234705 73 169 3.0 11.0 0.00 0.00 0.00 37 1017.4
20190322234204 74 184 3.0 9.0 0.00 0.00 0.00 37 1017.4
20190322233705 74 181 3.0 10.0 0.00 0.00 0.00 37 1017.4
20190322233205 74 170 4.0 10.0 0.00 0.00 0.00 36 1017.3
20190322232705 74 168 4.0 8.0 0.00 0.00 0.00 37 1017.4
20190322232204 74 202 4.0 9.0 0.00 0.00 0.00 38 1017.4
20190322231704 75 174 4.0 9.0 0.00 0.00 0.00 38 1017.4
20190322231204 75 185 4.0 9.0 0.00 0.00 0.00 37 1017.4
20190322230704 75 215 4.0 8.0 0.00 0.00 0.00 36 1017.5
20190322230205 76 178 3.0 8.0 0.00 0.00 0.00 37 1017.5
20190322225704 76 170 3.0 8.0 0.00 0.00 0.00 37 1017.4
20190322225204 76 201 3.0 8.0 0.00 0.00 0.00 36 1017.5
20190322224704 77 180 3.0 8.0 0.00 0.00 0.00 36 1017.5
20190322224204 77 164 3.0 8.0 0.00 0.00 0.00 36 1017.5
20190322223704 77 162 3.0 8.0 0.00 0.00 0.00 36 1017.5
20190322223205 77 190 3.0 7.0 0.00 0.00 0.00 35 1017.5
20190322222704 78 174 3.0 7.0 0.00 0.00 0.00 35 1017.5
20190322222204 78 228 3.0 7.0 0.00 0.00 0.00 34 1017.6
20190322221704 78 172 3.0 8.0 0.00 0.00 0.00 35 1017.5
20190322221203 78 185 3.0 8.0 0.00 0.00 0.00 35 1017.5
20190322220704 78 161 3.0 11.0 0.00 0.00 0.00 34 1017.5
20190322220205 78 169 3.0 11.0 0.00 0.00 0.00 36 1017.5
20190322215704 78 171 3.0 11.0 0.00 0.00 0.00 35 1017.5
20190322215204 78 175 3.0 9.0 0.00 0.00 0.00 35 1017.5
20190322214704 78 194 3.0 11.0 0.00 0.00 0.00 35 1017.5
20190322214205 78 132 4.0 11.0 0.00 0.00 0.00 35 1017.5
20190322213704 78 161 4.0 11.0 0.00 0.00 0.00 35 1017.5
20190322213204 79 170 4.0 8.0 0.00 0.00 0.00 34 1017.5
20190322212704 79 163 3.0 13.0 0.00 0.00 0.00 34 1017.6
20190322212204 79 163 3.0 13.0 0.00 0.00 0.00 34 1017.6
20190322211705 79 171 3.0 13.0 0.00 0.00 0.00 35 1017.6
20190322211204 80 175 3.0 8.0 0.00 0.00 0.00 35 1017.7
20190322210704 80 184 3.0 8.0 0.00 0.00 0.00 33 1017.7
20190322210204 80 178 3.0 8.0 0.00 0.00 0.00 35 1017.8
20190322205704 80 170 3.0 6.0 0.00 0.00 0.00 34 1017.9
20190322205204 80 192 2.0 8.0 0.00 0.00 0.00 35 1018.0
20190322204704 80 133 2.0 8.0 0.00 0.00 0.00 36 1018.1
20190322204204 79 177 3.0 8.0 0.00 0.00 0.00 35 1018.1
20190322203704 79 187 3.0 7.0 0.00 0.00 0.00 35 1018.2
20190322203205 79 194 3.0 6.0 0.00 0.00 0.00 36 1018.2
20190322202704 79 174 3.0 9.0 0.00 0.00 0.00 37 1018.4
20190322202204 80 169 2.0 9.0 0.00 0.00 0.00 36 1018.4
20190322201704 80 175 2.0 9.0 0.00 0.00 0.00 35 1018.6
20190322201204 80 162 2.0 6.0 0.00 0.00 0.00 36 1018.6
20190322200704 80 167 2.0 6.0 0.00 0.00 0.00 36 1018.7
20190322200204 81 153 1.0 6.0 0.00 0.00 0.00 36 1018.8
20190322195704 81 167 1.0 5.0 0.00 0.00 0.00 36 1018.9
20190322195204 80 219 1.0 7.0 0.00 0.00 0.00 37 1018.9
20190322194704 80 180 1.0 7.0 0.00 0.00 0.00 38 1018.9
20190322194204 80 121 2.0 7.0 0.00 0.00 0.00 37 1019.0
20190322193705 80 182 2.0 6.0 0.00 0.00 0.00 36 1019.2
20190322193204 80 161 1.0 7.0 0.00 0.00 0.00 36 1019.2
20190322192704 80 149 1.0 7.0 0.00 0.00 0.00 37 1019.3
20190322192205 79 147 2.0 7.0 0.00 0.00 0.00 37 1019.3
20190322191705 79 178 2.0 7.0 0.00 0.00 0.00 36 1019.3
20190322191205 80 96 2.0 7.0 0.00 0.00 0.00 37 1019.4
20190322190704 80 175 1.0 5.0 0.00 0.00 0.00 36 1019.5
20190322190204 80 177 1.0 6.0 0.00 0.00 0.00 36 1019.5
20190322185705 80 160 1.0 6.0 0.00 0.00 0.00 36 1019.6
20190322185205 79 123 2.0 7.0 0.00 0.00 0.00 37 1019.7
20190322184704 79 209 2.0 7.0 0.00 0.00 0.00 36 1019.8
20190322184204 79 184 1.0 7.0 0.00 0.00 0.00 38 1019.8
20190322183705 79 172 1.0 6.0 0.00 0.00 0.00 37 1019.9
20190322183204 79 167 2.0 6.0 0.00 0.00 0.00 37 1020.0
20190322182705 79 187 1.0 5.0 0.00 0.00 0.00 36 1020.1
20190322182205 78 165 1.0 5.0 0.00 0.00 0.00 38 1020.3
20190322181704 78 182 2.0 6.0 0.00 0.00 0.00 35 1020.4
20190322181205 78 189 2.0 6.0 0.00 0.00 0.00 35 1020.5
20190322180704 78 202 2.0 6.0 0.00 0.00 0.00 36 1020.6
20190322180204 78 169 1.0 6.0 0.00 0.00 0.00 38 1020.7
20190322175704 78 138 1.0 6.0 0.00 0.00 0.00 39 1020.6
20190322175204 78 165 2.0 8.0 0.00 0.00 0.00 36 1020.7
20190322174704 77 135 2.0 8.0 0.00 0.00 0.00 39 1020.8
20190322174204 77 172 2.0 5.0 0.00 0.00 0.00 38 1020.9
20190322173705 77 184 2.0 6.0 0.00 0.00 0.00 38 1021.0
20190322173205 77 182 2.0 6.0 0.00 0.00 0.00 40 1021.1
20190322172705 77 163 2.0 6.0 0.00 0.00 0.00 40 1021.2
20190322172205 77 198 1.0 5.0 0.00 0.00 0.00 42 1021.2
20190322171705 76 182 1.0 5.0 0.00 0.00 0.00 42 1021.3
20190322171203 77 185 1.0 5.0 0.00 0.00 0.00 42 1021.4
20190322170704 77 189 1.0 5.0 0.00 0.00 0.00 43 1021.5
20190322170204 77 167 1.0 4.0 0.00 0.00 0.00 42 1021.6
20190322165705 77 172 1.0 4.0 0.00 0.00 0.00 41 1021.6
20190322165205 77 182 0.0 4.0 0.00 0.00 0.00 41 1021.6
20190322164704 77 96 0.0 4.0 0.00 0.00 0.00 44 1021.7
20190322164204 77 96 0.0 4.0 0.00 0.00 0.00 42 1021.8
20190322163704 77 192 0.0 4.0 0.00 0.00 0.00 44 1021.9
20190322163204 77 200 0.0 4.0 0.00 0.00 0.00 48 1021.9
20190322162704 77 184 0.0 3.0 0.00 0.00 0.00 49 1021.9
20190322162205 77 34 0.0 3.0 0.00 0.00 0.00 49 1021.9
20190322161705 76 34 0.0 3.0 0.00 0.00 0.00 49 1021.9
20190322161203 76 37 0.0 3.0 0.00 0.00 0.00 51 1021.9
20190322160704 76 37 0.0 2.0 0.00 0.00 0.00 53 1022.0
20190322160204 75 149 0.0 2.0 0.00 0.00 0.00 55 1021.9
20190322155704 75 149 0.0 4.0 0.00 0.00 0.00 56 1022.0
20190322155204 75 300 0.0 4.0 0.00 0.00 0.00 60 1021.9
20190322154704 75 320 1.0 4.0 0.00 0.00 0.00 61 1022.0
20190322154204 74 329 1.0 3.0 0.00 0.00 0.00 64 1022.1
20190322153704 74 260 0.0 3.0 0.00 0.00 0.00 65 1022.1
20190322153204 73 254 0.0 3.0 0.00 0.00 0.00 65 1022.2
20190322152704 73 254 0.0 4.0 0.00 0.00 0.00 61 1022.2
20190322152205 72 269 1.0 4.0 0.00 0.00 0.00 61 1022.2
20190322151704 71 320 1.0 4.0 0.00 0.00 0.00 51 1022.3
20190322151204 70 298 1.0 4.0 0.00 0.00 0.00 42 1022.2
20190322150704 69 301 1.0 4.0 0.00 0.00 0.00 24 1022.2
20190322150204 68 298 1.0 4.0 0.00 0.00 0.00 17 1022.1
20190322145705 67 296 1.0 4.0 0.00 0.00 0.00 6 1022.2
20190322145205 65 273 1.0 4.0 0.00 0.00 0.00 100 1022.2
20190322144704 64 315 1.0 4.0 0.00 0.00 0.00 100 1022.1
20190322144204 63 315 0.0 2.0 0.00 0.00 0.00 100 1022.1
20190322143704 63 186 0.0 2.0 0.00 0.00 0.00 100 1021.9
20190322143204 63 186 0.0 2.0 0.00 0.00 0.00 100 1021.8
20190322142704 62 186 0.0 2.0 0.00 0.00 0.00 100 1021.7
20190322142205 61 187 0.0 2.0 0.00 0.00 0.00 100 1021.6